sat.trackr.live / text

‹ back to catalog

DEIMOS-2

NORAD 40013 · 2014-033D

PAYLOAD ACTIVE UNKNOWN

§ Identity

Operator
Country
SPN
Launch date
2014-06-19
Launch site
DLS
Launch vehicle
Mass (kg)
RCS (m²)
1.80

Purposes: earth_obs

External: N2YO · Heavens-Above · Gunter

§ Orbital elements

Epoch: 2026-05-25T03:19:38.915040Z

Period
96.41 min
Inclination
97.5856°
Eccentricity
0.0002418
Mean motion
14.93651282 rev/d
Perigee alt
584.9 km
Apogee alt
588.2 km
Semi-major
6,964.7 km
B*
1.8383e-4
RAAN
20.4341°
Arg perigee
72.7087°
Mean anomaly
287.4398°
Rev number
63,428

§ Raw data

DEIMOS-21 40013U 14033D   26145.13864485  .00001888  00000+0  18383-3 0  99962 40013  97.5856  20.4341 0002418  72.7087 287.4398 14.93651282634285

JSON: /api/v1/satellites/40013 · /tle

For live sub-satellite position, see the globe view (requires WebGL).

§ Visibility from observer

Set your observer location to see the next 7 days of passes ≥ 10°. The values pass through the URL so the page stays shareable.

No JS? Fill the form by hand. The geolocation button needs JavaScript.

§ Radio — SatNOGS DB

ModeDescriptionDownlinkUplink
BPSK S-band telemetry 2.224 GHz

1 transmitter · refreshed weekly from db.satnogs.org